Location: Azul
(36.7830°S, 59.8500°W)
Time: 12:32:30
(UTC-03:00)

ISS - Pass Details

Date: 16 February 2018
Orbit: 403 x 406 km, 51.6° (Epoch: 26 February)

Event Time Altitude Azimuth Distance (km) Brightness Sun altitude
Rises 05:45:24 0° 226° (SW) 2,364 -0.2 -9.6°
Reaches altitude 10° 05:47:33 10° 220° (SW) 1,496 -1.1 -9.2°
Maximum altitude 05:50:49 51° 143° (SE) 532 -2.8 -8.5°
Drops below altitude 10° 05:54:04 10° 65° (ENE) 1,479 -0.3 -7.9°
Sets 05:56:11 0° 59° (ENE) 2,333 0.6 -7.6°
